Weather History for Dickinson, ND

Change the Weather History Date:

Wednesday, September 25, 2013

  Actual Average Record
Temperature  
Mean Temperature 64 °F 53 °F  
Max Temperature 72 °F 67 °F 91 °F (2014)
Min Temperature 55 °F 39 °F 12 °F (1926)
Degree Days  
Heating Degree Days 1 13  
Month to date heating degree days 75 199  
Since 1 July heating degree days 115 285  
Cooling Degree Days 0 0  
Month to date cooling degree days 74 30  
Year to date cooling degree days 386 416  
Growing Degree Days 12 (Base 50)    
Moisture  
Dew Point 47 °F    
Average Humidity 53    
Maximum Humidity 66    
Minimum Humidity 40    
Precipitation  
Precipitation 0.00 in 0.05 in 1.15 in (1959)
Month to date precipitation 3.19 1.23  
Year to date precipitation 16.36 13.52  
Sea Level Pressure  
Sea Level Pressure 29.57 in    
Wind  
Wind Speed 12 mph (West)    
Max Wind Speed 28 mph    
Max Gust Speed 36 mph    
Visibility 10 miles    
Events Rain , Thunderstorm    
T = Trace of Precipitation, MM = Missing Value Source: NWS Daily Summary

Daily Weather History Graph

Daily Weather History Graph

Search for Another Location

Airport:

Trip Planner

Search our weather history database for the weather conditions in past years. The results will help you decide how hot, cold, wet, or windy it might be!

Date:

Astronomy

Sep. 25, 2013 Rise Set
Actual Time 6:42 AM MDT 6:42 PM MDT
Civil Twilight 6:12 AM MDT 7:12 PM MDT
Nautical Twilight 5:36 AM MDT 7:47 PM MDT
Astronomical Twilight 5:00 AM MDT 8:24 PM MDT
Moon 10:31 PM MDT (9/25) 1:09 PM MDT (9/25)
Length of Visible Light 13h 00m
Length of Day
11h 59m
Waning Gibbous, 63% of the Moon is Illuminated
Sep 25
Waning Gibbous
Sep 26
Last Quarter
Oct 4
New
Oct 11
First Quarter
Oct 18
Full

Hourly Weather History & Observations

Time (MDT) Temp. Dew Point Humidity Pressure Visibility Wind Dir Wind Speed Gust Speed Precip Events Conditions
12:56 AM 59.0 °F 41.0 °F 51% 29.65 in 10.0 mi SSE 24.2 mph 31.1 mph N/A   Clear
1:56 AM 60.1 °F 41.0 °F 49% 29.61 in 10.0 mi SSE 24.2 mph 32.2 mph N/A   Clear
2:56 AM 59.0 °F 41.0 °F 51% 29.60 in 10.0 mi SSE 27.6 mph 35.7 mph N/A   Clear
3:56 AM 57.9 °F 42.1 °F 56% 29.59 in 10.0 mi South 21.9 mph 31.1 mph N/A   Clear
4:56 AM 57.0 °F 42.1 °F 57% 29.59 in 10.0 mi South 16.1 mph 24.2 mph N/A   Clear
5:56 AM 55.9 °F 42.1 °F 60% 29.60 in 10.0 mi South 15.0 mph 23.0 mph N/A   Clear
6:56 AM 55.0 °F 43.0 °F 64% 29.62 in 10.0 mi SSE 10.4 mph - N/A   Clear
7:56 AM 55.0 °F 44.1 °F 67% 29.63 in 10.0 mi South 10.4 mph - N/A   Clear
8:56 AM 55.9 °F 45.0 °F 67% 29.61 in 10.0 mi SSE 6.9 mph - N/A   Partly Cloudy
9:56 AM 64.0 °F 46.0 °F 52% 29.59 in 10.0 mi SSE 10.4 mph - N/A   Clear
10:56 AM 68.0 °F 46.0 °F 45% 29.57 in 10.0 mi SSE 12.7 mph - N/A   Clear
11:56 AM 69.1 °F 46.0 °F 44% 29.57 in 10.0 mi South 5.8 mph - N/A   Clear
12:56 PM 70.0 °F 45.0 °F 41% 29.53 in 10.0 mi Calm Calm - N/A   Clear
1:56 PM 70.0 °F 48.0 °F 46% 29.53 in 10.0 mi WNW 5.8 mph - N/A   Clear
2:56 PM 70.0 °F 46.9 °F 44% 29.52 in 10.0 mi SSW 4.6 mph - N/A   Clear
3:56 PM 69.1 °F 48.9 °F 49% 29.53 in 10.0 mi WSW 4.6 mph - N/A   Clear
4:56 PM 70.0 °F 48.9 °F 47% 29.52 in 10.0 mi NNE 4.6 mph - N/A   Clear
5:56 PM 64.9 °F 50.0 °F 58% 29.52 in 10.0 mi North 5.8 mph - N/A   Clear
6:56 PM 61.0 °F 48.9 °F 64% 29.53 in 10.0 mi North 9.2 mph - N/A   Clear
7:56 PM 62.1 °F 48.0 °F 60% 29.56 in 10.0 mi North 11.5 mph - N/A   Mostly Cloudy
8:48 PM 57.2 °F 50.0 °F 77% 29.59 in 10.0 mi WNW 19.6 mph 26.5 mph 0.00 in Rain , Thunderstorm Light Thunderstorms and Rain
8:56 PM 57.0 °F 50.0 °F 77% 29.60 in 10.0 mi NW 18.4 mph 26.5 mph 0.00 in Rain , Thunderstorm Light Thunderstorms and Rain
9:09 PM 57.2 °F 50.0 °F 77% 29.60 in 10.0 mi NNW 12.7 mph - 0.00 in Rain , Thunderstorm Light Thunderstorms and Rain
9:24 PM 55.4 °F 51.8 °F 88% 29.58 in - NE 13.8 mph 18.4 mph 0.02 in Rain , Thunderstorm Thunderstorms and Rain
9:39 PM 57.2 °F 51.8 °F 82% 29.54 in 5.0 mi NE 15.0 mph 31.1 mph 0.07 in Rain , Thunderstorm Light Rain
9:52 PM 57.2 °F 51.8 °F 82% 29.55 in 10.0 mi NE 12.7 mph 21.9 mph 0.07 in   Scattered Clouds
9:56 PM 59.0 °F 51.1 °F 75% 29.53 in 10.0 mi North 9.2 mph 21.9 mph 0.07 in   Scattered Clouds
10:47 PM 53.6 °F 51.8 °F 94% 29.57 in 10.0 mi NNW 6.9 mph - 0.00 in Rain , Thunderstorm Light Rain
10:56 PM 54.0 °F 51.1 °F 90% 29.55 in 10.0 mi NNW 9.2 mph - 0.00 in Rain , Thunderstorm Light Rain
11:22 PM 53.6 °F 50.0 °F 88% 29.59 in 10.0 mi WNW 15.0 mph 21.9 mph 0.00 in Rain , Thunderstorm Light Rain
11:26 PM 53.6 °F 50.0 °F 88% 29.59 in 10.0 mi WNW 17.3 mph 21.9 mph 0.00 in   Scattered Clouds
11:56 PM 53.1 °F 50.0 °F 89% 29.57 in 10.0 mi WNW 12.7 mph - 0.00 in   Partly Cloudy